EDT,Max TemperatureF,Mean TemperatureF,Min TemperatureF,Max Dew PointF,MeanDew PointF,Min DewpointF,Max Humidity, Mean Humidity, Min Humidity, Max Sea Level PressureIn, Mean Sea Level PressureIn, Min Sea Level PressureIn, Max VisibilityMiles, Mean VisibilityMiles, Min VisibilityMiles, Max Wind SpeedMPH, Mean Wind SpeedMPH, Max Gust SpeedMPH,PrecipitationIn, CloudCover, Events, WindDirDegrees
2012-9-1,90,84,78,77,75,70,85,72,59,30.12,30.08,30.03,10,10,10,20,9,23,0.13,5,Rain,47
2012-9-2,88,82,75,70,69,68,82,69,55,30.06,30.02,29.98,10,10,10,15,7,18,0.00,3,,40
2012-9-3,88,82,75,74,72,70,87,73,59,30.05,30.01,29.98,10,10,10,17,6,21,0.00,3,,116
2012-9-4,87,80,73,73,70,63,87,74,61,30.05,30.00,29.95,10,10,10,28,5,33,0.03,5,Rain-Thunderstorm,168
2012-9-5,89,81,73,74,71,65,93,74,55,30.03,29.99,29.94,10,10,10,28,6,35,0.02,6,Rain-Thunderstorm,169
2012-9-6,88,81,74,75,71,67,87,74,61,30.04,30.00,29.98,10,10,9,22,5,26,0.13,5,Rain-Thunderstorm,202
2012-9-7,89,82,74,75,72,70,93,76,59,30.01,29.96,29.93,10,10,10,28,4,33,T,4,Rain-Thunderstorm,170
2012-9-8,92,85,77,75,72,68,88,69,50,29.99,29.93,29.89,10,10,10,17,7,21,T,3,,193
2012-9-9,92,85,77,76,73,69,91,70,49,29.98,29.94,29.88,10,10,10,22,10,29,0.00,4,,232
2012-9-10,90,83,76,77,74,72,91,75,59,30.01,29.98,29.93,10,10,1,22,6,28,0.15,5,Rain-Thunderstorm,267
2012-9-11,89,83,77,81,75,72,94,80,65,30.07,30.03,29.98,10,10,4,20,7,23,0.10,5,Rain-Thunderstorm,57
2012-9-12,88,83,77,75,72,69,85,72,59,30.08,30.04,30.00,10,9,0,28,15,36,0.29,6,Rain,58
2012-9-13,86,81,76,73,72,70,85,71,57,30.07,30.03,29.99,10,9,2,30,14,35,0.79,7,Rain-Thunderstorm,81
2012-9-14,88,82,75,76,73,71,87,74,61,30.03,30.00,29.97,10,10,10,21,8,25,T,5,Rain,85
2012-9-15,86,81,76,77,73,71,94,82,69,30.06,30.02,29.98,10,8,1,20,7,22,1.20,6,Rain-Thunderstorm,69
2012-9-16,85,82,78,74,72,70,79,72,65,30.05,30.01,29.97,10,10,10,21,9,24,0.05,5,Rain,99
2012-9-17,86,82,77,75,73,71,85,78,70,30.04,29.98,29.93,10,10,10,17,9,22,T,5,Rain-Thunderstorm,120
2012-9-18,92,85,77,75,73,71,88,70,52,29.99,29.95,29.89,10,9,1,18,8,25,0.48,6,Rain-Thunderstorm,211
2012-9-19,89,83,76,76,73,70,88,72,56,30.07,29.99,29.92,10,10,10,21,5,24,T,6,Rain,245
2012-9-20,88,82,76,74,72,70,88,74,59,30.03,29.99,29.93,10,10,10,13,5,18,0.00,6,,33
2012-9-21,88,82,76,75,72,68,88,71,53,29.99,29.96,29.91,10,9,0,8,4,26,0.09,7,Fog-Rain-Thunderstorm,49
2012-9-22,81,78,74,75,73,70,94,84,74,30.03,29.99,29.93,10,7,1,10,4,17,1.28,7,Rain-Thunderstorm,108
2012-9-23,84,79,74,74,73,70,94,78,61,30.05,30.02,29.99,10,10,10,12,5,,T,6,Rain,8
2012-9-24,87,81,75,74,71,69,88,75,61,30.06,30.02,29.99,10,10,10,17,7,35,0.01,7,,345
2012-9-25,87,81,75,73,71,70,87,74,61,30.08,30.03,29.99,10,10,10,14,6,18,T,7,Rain,32
2012-9-26,86,82,77,74,72,67,85,74,62,30.09,30.06,30.01,10,10,10,13,6,17,T,7,Thunderstorm,63
2012-9-27,90,84,77,76,74,71,91,75,59,30.09,30.04,29.99,10,10,10,13,6,17,0.01,6,Thunderstorm,56
2012-9-28,88,82,76,76,74,72,94,77,59,30.03,29.98,29.93,10,10,10,13,6,17,0.00,5,,48
2012-9-29,88,82,75,76,74,72,94,77,59,29.97,29.92,29.86,10,10,10,14,5,17,0.00,5,,113
2012-9-30,89,83,76,76,74,72,94,77,59,29.90,29.86,29.80,10,10,10,16,6,21,0.00,4,,149